Regional Weather Roundup
Issued by NWS Wakefield, VA

Home | Current Version | Previous Version | Graphics & Text | Print | Product List | Glossary On
Versions: 1 2 3 4 5 6 7 8 9 10 11 12 13 14 15 16 17 18 19 20 21 22 23 24 25 26 27 28 29 30 31 32 33 34 35 36 37 38 39 40 41 42 43 44 45 46 47 48 49 50
000
ASUS41 KAKQ 301712
RWRAKQ

REGIONAL WEATHER ROUNDUP
NATIONAL WEATHER SERVICE WAKEFIELD VA
100 PM EDT SUN AUG 30 2015

Note: "fair" indicates few or no clouds below 12,000 feet with no
significant weather and/or obstructions to visibility. * = Denotes
station may not report precipitation (e.g., rain,snow,etc.),
thunder or fog.

VAZ042-051-052>054-056-301800-
NORTHERN VIRGINIA

CITY           SKY/WX    TMP DP  RH WIND       PRES   REMARKS
WASH NATIONAL  CLOUDY    79  67  66 S7        30.13F
DULLES         CLOUDY    81  65  58 CALM      30.13F
FORT BELVOIR   CLOUDY    78  67  70 SE3       30.13F
QUANTICO       CLOUDY    76  66  71 S6        30.14F
FREDERICKSBRG* CLOUDY    83  68  60 CALM      30.12F
STAFFORD*      CLOUDY    80  67  64 CALM      30.17F
WARRENTON      CLOUDY    83  71  66 CALM      30.13F
CULPEPER*      CLOUDY    80  68  67 CALM      30.14F
MANASSAS*      SUNNY     79  70  73 CALM      30.13F
LEESBURG*      PTSUNNY   86  72  62 S13       30.13F
WINCHESTER     PTSUNNY   88  63  42 W3        30.13F
FRONT ROYAL*   FAIR      86  64  48 SW3       30.13S
LURAY*         FAIR      81  63  54 SW5       30.16S
$$

VAZ048-049-060>072-079>083-301800-
CENTRAL AND SOUTH CENTRAL VIRGINIA

CITY           SKY/WX    TMP DP  RH WIND       PRES   REMARKS
RICHMOND       PTSUNNY   87  61  41 S3        30.13F
CHESTERFIELD*  FAIR      88  61  40 S12       30.15F
PETERSBURG*    PTSUNNY   87  67  51 S6        30.15F
HANOVER        PTSUNNY   87  61  41 CALM      30.15F
TAPPAHANNOCK*  PTSUNNY   85  62  44 S5        30.15S
QUINTON*       FAIR      86  65  48 CALM      30.14F
CHARLOTTSVILLE CLOUDY    85  65  51 CALM      30.14F
GORDONSVILLE*  FAIR      84  68  58 CALM      30.13F
ORANGE*        CLOUDY    86  66  51 E3        30.15F
LOUISA*        PTSUNNY   86  64  48 W3        30.13F
BUMPASS*       FAIR      83  65  54 W3        30.14F
FARMVILLE*     MOSUNNY   88  60  38 SE5       30.13F
CREWE*         FAIR     N/A N/A N/A S7        30.14F
FORT PICKETT*  FAIR      86  62  44 CALM      30.15F
CHASE CITY*    FAIR      87  63  43 W3        30.15F
CLARKSVILLE*   FAIR      86  63  45 E3        30.15F
SOUTH HILL*    MOSUNNY   83  65  53 CALM      30.21F
LAWRENCEVILLE* FAIR      84  63  48 CALM      30.15F
EMPORIA*       MOSUNNY   84  59  42 SE6       30.16F
$$

VAZ088>098-301800-
SOUTHEAST VIRGINIA

CITY           SKY/WX    TMP DP  RH WIND       PRES   REMARKS
NORFOLK        MOSUNNY   84  59  42 NE7       30.15F
VIRGINIA BEACH MOSUNNY   87  58  37 VRB6      30.15F
NORFOLK NAVAL  PTSUNNY   85  59  41 VRB5      30.16F
WEST POINT*    PTSUNNY   85  61  43 S6        30.16F
SALUDA*        FAIR      83  65  53 S6        30.14F
NEWPORT NEWS   PTSUNNY   86  61  42 SW8       30.15F
LANGLEY AFB    PTSUNNY   85  63  46 VRB6      30.14F
FORT EUSTIS    PTSUNNY   85  61  43 VRB3      30.13F
WILLIAMSBURG*  PTSUNNY   88  66  48 SE6       30.16F
HR EXEC AP*      N/A     88  64  45 E5        30.16F
FRANKLIN*      MOSUNNY   85  61  43 W5        30.15F
WAKEFIELD      PTSUNNY   86  58  38 CALM      30.15F
$$

VAZ020-022-025-037-045-301800-
WEST CENTRAL AND SOUTHWEST VIRGINIA

CITY           SKY/WX    TMP DP  RH WIND       PRES   REMARKS
STAUNTON*      CLOUDY    83  61  46 E3        30.19F
WAYNESBORO*    FAIR      82  61  48 CALM      30.19F
HOT SPRINGS VA CLOUDY    70  61  71 N3        30.29F
LYNCHBURG      CLOUDY    83  61  47 S3        30.17F
DANVILLE       CLOUDY    84  63  49 W3        30.16F
SOUTH BOSTON*  FAIR      86  58  38 CALM      30.15F
MARTINSVILLE   CLOUDY    80  63  56 SW3       30.21S
ROANOKE        CLOUDY    79  63  57 CALM      30.20F
BLACKSBURG     CLOUDY    76  64  67 CALM      30.27F
DUBLIN*        CLOUDY    77  62  59 CALM      30.25F
MARION*        CLOUDY    75  62  63 CALM      30.28F
HILLSVILLE*    CLOUDY    73  64  73 CALM      30.26F
RICHLANDS*     FAIR      73  30  20 CALM      30.26F
WISE*          CLOUDY    73  61  64 NE5       30.28S
ABINGDON*      CLOUDY    78  58  49 SE3       30.24S
$$

MDZ021>025-VAZ099-100-301800-
SOUTHERN MARYLAND AND THE DELMARVA PENINSULA

CITY           SKY/WX    TMP DP  RH WIND       PRES   REMARKS
PATUXENT RIVER CLOUDY    82  65  56 S8        30.13F
BAY BRIDGE APT   N/A     79  63  57 S8        30.12F
LEONARDTOWN    CLOUDY    79  63  57 CALM      30.15F
DOVER          PTSUNNY   84  68  58 S9        30.10F
GEORGETOWN     CLOUDY    82  66  58 SW10      30.14F
EASTON         MOSUNNY   81  66  61 SW12      30.16F
CAMBRIDGE      CLOUDY    82  63  51 S3        30.13F
SALISBURY      CLOUDY    83  68  60 SW7       30.14F
OCEAN CITY     CLOUDY    82  64  54 S8        30.14F
WALLOPS ISLAND PTSUNNY   84  65  52 S8        30.14F
ACCOMACK*      PTSUNNY   82  54  36 S6        30.14F
$$

NCZ012>017-030>032-301800-
NORTH CENTRAL AND EASTERN NORTH CAROLINA

CITY           SKY/WX    TMP DP  RH WIND       PRES   REMARKS
ROANOKE RAPIDS FAIR      86  59  39 E3        30.14F
RALEIGH        PTSUNNY   85  60  42 CALM      30.16F
ELIZABETH CITY SUNNY     84  63  49 VRB3      30.15F
AHOSKIE*       MOSUNNY   84  59  42 N3        30.15F
EDENTON*       SUNNY     83  64  52 CALM      30.15F
CURRITUCK*     SUNNY     83  61  46 E5        30.16F
KILL DEVIL HLS PTSUNNY   83  69  64 NE5       30.15F
MANTEO         MOSUNNY   80  71  74 NE9       30.16F
CAPE HATTERAS  PTSUNNY   81  73  76 NE6       30.16F
TARBORO*       FAIR      87  57  36 CALM      30.16S
GOLDSBORO      PTSUNNY   85  64  50 CALM      30.14F
WASHINGTON     PTSUNNY   83  64  53 CALM      30.15F
GREENVILLE     PTSUNNY   82  63  51 CALM      30.17F
NEW BERN       CLOUDY    82  63  52 E3        30.16F
WILMINGTON     PTSUNNY   82  62  50 NE7       30.16S
$$

VAZ048-301800-
ELSEWHERE

CITY           SKY/WX    TMP DP  RH WIND       PRES   REMARKS
HARRISBURG PA  PTSUNNY   85  67  54 CALM      30.08F
BALTIMORE      CLOUDY    81  67  62 S6        30.11F
ANNAPOLIS      CLOUDY    78  65  63 S5        30.11F
ANDREWS AFB    CLOUDY    79  65  63 S6        30.12F
PHILADELPHIA   PTSUNNY   86  64  47 SW9       30.09F
HENDERSON NC   MOSUNNY   84  56  37 SW3       30.16F
GREENSBORO     CLOUDY    82  59  45 SW7       30.18F
ROCKY MOUNT    PTSUNNY   88  57  34 N6        30.15F
$$

VAZ100-301800-
MARINE

STATION/POSITION TIME  TEMP    WIND        PRES    WAVE   SWELL
                       AIR SEA DIR/SP/G            HT/PER HT/PER
                 (UTC) (F)     (DEG/KT/KT) (MB)    (FT/S) (FT/S)
15NM E FENWICK I 1650   76 78  220/  6/  8 1020.8F   3/11   2/11
GOOSES REEF MD   1700   77 79  180/ 10/ 12 1021.2F
POTOMAC MD       1700   81 79  160/  6/  8 1019.5F   1
STINGRAY PT      1600   78 79  170/  6/  6 1021.9R   0
JAMESTOWN VA     1700   82 82  120/  4/  6   N/A
CHESAPEAKE LGHT  1600   76      10/  4/  4 1022.2R
CAPE HENRY BUOY  1628      80                N/A     3/10   2/11
1ST LANDING BUOY 1700      80              1020.8F   1/ 4
CAPE CHARLES BUO 1626      80                N/A     3/11   3/11
OFFSHORE WE BUOY 1611      79                N/A     3/11   3/11
64NM E OF VA BCH 1650   78 78   50/ 10/ 10 1020.5F   4/11   3/11
44100 DUCK FRF   1624      78                N/A     3/10   2/11
44056 DUCK FRF   1611      79                N/A     3/11   2/11
DIAMOND SHLS NC  1650   79 83  350/  8/  8 1021.3F   3/11   3/11
CAPE LOOKOUT NC  1700   78      40/  7/  8 1020.5F
$$


USA.gov is the U.S. government's official web portal to all federal, state and local government web resources and services.